CAPE
400 619 710 792 934 1177 1742 1568 1762 1927 1952 1730 1667 1466 1405 1361 1265 1154 1507 2435 1820 1756 1719 1299 1443 1567 1706 1629 2272 2183 1187 143 27 0 0 0 4 20 0 4 7 0 47
169 419 705 882 986 1319 1543 1884 1855 2251 1853 2023 1808 1763 1391 1190 1070 1143 1558 1505 1712 1807 1961 1680 1647 1617 1789 1999 1801 1897 1064 254 0 1 2 57 0 0 0 35 0 4 0
5 205 545 686 863 1149 1501 1844 1963 2073 2161 2032 1982 1609 2037 1262 1495 1399 1674 1935 1875 2149 2326 2204 2473 2402 2578 2016 1962 1625 944 35 3 119 42 92 1 20 88 14 0 0 2
0 102 377 515 640 918 1452 1793 2113 2337 2595 1913 2227 1590 1269 1508 1214 1266 1489 1270 2014 2061 2242 2392 2551 2993 2782 2467 1778 1439 698 29 1 26 116 18 66 40 56 6 0 0 0
0 16 212 474 446 630 1139 1393 2185 2243 2445 2448 1980 1954 1727 1577 1341 1461 1326 1880 2292 2257 2339 2579 2685 2699 3160 2696 1858 1036 287 88 136 164 47 76 11 0 0 0 0 0 0
0 0 59 339 510 560 724 1266 1927 2120 2282 2614 1927 2186 1940 1428 1796 1373 1612 2089 1893 2530 2380 2650 2923 3171 2980 2173 1483 562 524 210 407 278 473 135 0 0 0 0 0 0 0
0 0 79 190 474 529 606 795 1554 2040 2363 2431 2710 1608 2152 2654 1559 2461 1880 1835 1914 2060 2810 2739 3127 2977 2651 1627 1079 730 520 418 569 476 439 10 0 0 0 0 0 0 0
76 0 179 329 444 500 556 703 1220 2062 2488 2643 3142 3139 2151 2814 3799 2370 2214 2597 1631 1809 2809 2931 2837 2629 2257 1499 1240 917 584 619 578 606 113 8 0 0 0 0 0 0 0
109 101 90 501 686 717 660 771 1036 1985 2665 2967 3085 3508 3656 2919 2664 3013 2838 2160 2825 2360 2801 2845 2723 2548 1661 1358 1206 771 688 533 694 381 18 0 0 0 0 0 0 0 0
20 275 192 133 668 934 936 972 1064 1980 2787 3240 3359 3370 3642 3933 3335 3222 2737 3150 2549 2394 3024 2679 2544 1993 1378 1225 1171 823 813 728 727 30 0 0 0 0 0 0 0 0 5
21 48 463 353 305 585 949 1183 1260 1271 2529 3526 3655 3686 3880 3988 4240 3617 3776 2996 3673 3098 3308 2809 2260 1613 1212 1037 965 868 1088 668 476 3 0 0 0 0 0 0 0 0 0
12 26 116 683 594 425 532 795 1196 1441 1653 3135 3597 3788 4018 4265 4292 4309 3871 4067 3576 3902 3725 3001 2239 1454 1062 1086 1153 1069 1036 703 138 3 0 0 0 0 0 0 0 0 0
0 4 32 110 931 829 609 594 929 1052 1558 2240 3417 3595 4045 4120 4412 4384 4513 4171 4150 3816 3866 3376 2314 1726 1250 1275 1164 1217 1079 509 17 0 0 0 0 0 0 0 0 0 13
0 5 314 438 943 972 1084 843 864 1111 1459 2209 3271 3520 3958 4104 4449 4434 4477 4402 4212 4014 3624 3073 2171 1341 1205 1633 1254 1246 785 301 1 9 1 0 2 0 0 0 0 2 0
0 113 575 965 1433 1495 1397 1489 1367 1296 1738 2368 3255 3808 4036 4419 4498 4445 4431 4503 4123 3950 3216 2517 2026 1580 1706 1363 1304 1141 414 94 33 43 53 23 0 0 0 0 0 0 0
0 0 515 1137 1403 2140 2089 2053 2344 2240 2233 2642 3321 3891 4131 4139 4208 4154 4174 3935 3942 3619 2955 2103 1810 1816 1510 1334 1180 654 254 57 35 42 96 118 0 0 0 0 0 0 0
0 0 133 981 1641 1974 2278 2203 2486 3025 2965 3236 3560 3829 4065 4137 4040 3832 3591 3537 3461 3269 2915 2337 2014 1619 1161 52 133 66 17 0 1 37 42 6 0 0 0 0 0 0 0
0 0 170 1402 2114 2258 2474 2514 2655 2983 3304 3542 3665 3873 4063 3961 4160 3935 3925 3801 3351 2768 2467 2154 1820 1502 292 0 0 0 0 0 18 57 54 0 0 0 0 0 0 0 0
0 143 169 2181 2597 2735 2843 2744 2932 3235 3482 3680 3753 4047 4300 4305 4036 3789 3504 3134 2657 2365 2096 1696 1486 1074 22 0 15 0 0 3 34 86 2 0 0 0 0 0 0 0 0
0 25 82 1352 3080 3224 3316 3214 3401 3591 3699 3907 4405 4256 3930 3479 2887 2749 2866 2684 2411 2035 1804 1395 1070 748 263 0 9 0 3 8 0 0 0 0 0 0 0 0 0 0 0
465 554 1285 2861 3315 3560 3434 3650 3891 4010 4234 4096 3579 3086 2960 2558 2386 2370 2781 2328 1772 1413 1236 934 712 576 315 9 0 0 0 0 0 0 0 0 0 0 0 0 0 0 0
1890 1895 2511 3035 3522 3533 3941 3969 3769 3928 3548 3247 2909 2716 2616 2352 2571 2317 1870 1600 1391 1088 886 749 662 558 20 0 0 0 0 0 0 0 0 0 0 0 0 0 0 0 0
2056 2935 3800 3934 4018 4061 4050 3838 3468 3162 3001 2652 2933 3005 2830 2772 2199 1849 1610 1485 1504 1147 884 701 493 297 4 0 0 0 0 0 0 0 0 0 0 0 0 0 0 0 0
3169 3411 3534 3350 3029 2938 2819 2730 2821 2970 3031 3187 2883 2454 2410 2221 2131 1899 1616 1563 1365 1252 832 789 490 173 161 0 0 0 0 0 0 0 0 0 0 0 0 0 0 0 0
2596 2612 2469 2429 2414 2382 2332 2427 2488 2441 2109 2376 2337 2057 2032 2135 1421 599 686 1193 184 467 665 440 237 108 91 0 0 0 0 0 0 0 0 0 0 0 0 0 0 0 0
1917 1725 1746 1944 2035 2176 2325 2483 2607 2605 2302 2181 2144 2008 2086 1456 1046 553 6 0 0 0 0 27 191 0 4 0 0 0 0 0 0 0 0 0 0 0 0 0 0 0 0
CIN
-82 -53 -52 -47 -39 -30 -18 -39 -15 -10 -11 -22 -42 -47 -33 -19 -13 -12 -3 -5 -4 -2 -2 -8 -5 -12 -5 -6 -6 -10 -38 -98 -174 -0 -0 -0 -95 -75 -0 -22 -49 -0 -51
-146 -95 -86 -60 -50 -49 -51 -40 -39 -15 -44 -25 -34 -19 -36 -19 -14 -6 -2 -6 -9 -8 -3 -17 -20 -4 -9 -3 -19 -33 -72 -117 -46 -61 -41 -139 -0 -0 -0 -96 -0 -21 -0
-113 -162 -131 -127 -102 -83 -83 -79 -71 -58 -59 -44 -27 -34 -5 -22 -12 -5 -7 -14 -19 -12 -2 -5 -2 -4 -8 -9 -14 -31 -68 -165 -119 -135 -196 -124 -35 -107 -131 -125 -0 -0 -9
-0 -180 -156 -154 -143 -115 -82 -77 -72 -53 -48 -72 -23 -63 -78 -49 -61 -47 -22 -56 -20 -22 -15 -15 -10 -1 -1 -6 -16 -57 -110 -219 -96 -182 -97 -194 -140 -180 -190 -18 -0 -0 -0
-0 -54 -154 -188 -179 -156 -135 -133 -81 -77 -62 -66 -83 -63 -73 -81 -94 -65 -69 -33 -24 -29 -25 -16 -10 -7 -3 -4 -43 -83 -147 -190 -128 -97 -141 -148 -202 -0 -0 -0 -0 -0 -0
-0 -0 -149 -172 -194 -166 -179 -171 -147 -142 -117 -82 -124 -93 -99 -136 -84 -99 -61 -42 -43 -18 -30 -13 -1 -3 -8 -27 -67 -129 -128 -177 -118 -126 -59 -113 -0 -0 -0 -0 -0 -0 -0
-0 -0 -136 -180 -205 -193 -204 -197 -207 -195 -163 -138 -110 -190 -132 -78 -137 -54 -76 -57 -59 -48 -17 -23 -4 -8 -10 -59 -102 -138 -138 -134 -91 -106 -88 -179 -0 -0 -0 -0 -0 -0 -0
-68 -0 -127 -158 -206 -236 -230 -221 -240 -219 -185 -169 -115 -107 -164 -86 -8 -79 -85 -35 -69 -21 -15 -36 -49 -33 -48 -95 -70 -100 -143 -117 -86 -50 -173 -195 -0 -0 -0 -0 -0 -0 -0
-33 -57 -103 -148 -174 -228 -237 -241 -229 -227 -191 -168 -153 -93 -69 -116 -123 -71 -58 -78 -21 -19 -16 -54 -73 -68 -67 -83 -70 -105 -115 -114 -63 -52 -203 -0 -0 -0 -0 -0 -0 -0 -0
-45 -31 -59 -107 -151 -184 -212 -194 -211 -195 -199 -174 -156 -149 -115 -82 -106 -72 -93 -52 -66 -35 -14 -65 -86 -98 -107 -127 -129 -73 -36 -59 -39 -171 -0 -0 -0 -0 -0 -0 -0 -0 -1
-16 -54 -21 -67 -129 -168 -175 -196 -202 -216 -173 -151 -146 -128 -119 -97 -54 -79 -36 -79 -10 -30 -7 -63 -118 -114 -119 -122 -139 -161 -24 -33 -62 -64 -0 -0 -0 -0 -0 -0 -0 -0 -0
-5 -5 -18 -27 -62 -133 -181 -187 -215 -211 -218 -163 -158 -136 -104 -74 -54 -46 -75 -11 -18 -3 -10 -43 -112 -142 -155 -117 -76 -72 -23 -41 -143 -201 -0 -0 -0 -0 -0 -0 -0 -0 -0
-0 -16 -33 -25 -30 -68 -142 -198 -227 -252 -214 -200 -162 -150 -106 -88 -61 -47 -27 -31 -0 -2 -4 -15 -69 -114 -106 -78 -42 -25 -17 -61 -163 -0 -0 -0 -0 -0 -0 -0 -0 -0 -2
-0 -23 -55 -58 -38 -46 -102 -149 -189 -211 -243 -211 -161 -165 -117 -105 -61 -39 -24 -20 -3 -2 -5 -6 -64 -160 -121 -42 -42 -9 -47 -84 -23 -23 -2 -0 -1 -0 -0 -0 -0 -2 -0
-0 -61 -47 -48 -49 -57 -84 -108 -126 -173 -207 -195 -173 -156 -117 -65 -47 -39 -25 -7 -3 -4 -19 -54 -112 -141 -115 -95 -49 -24 -67 -122 -76 -50 -30 -7 -0 -0 -0 -0 -0 -0 -0
-0 -0 -33 -54 -69 -73 -101 -114 -107 -126 -155 -168 -167 -135 -98 -69 -30 -37 -32 -23 -13 -28 -46 -161 -142 -87 -58 -54 -25 -41 -51 -79 -54 -39 -7 -3 -0 -0 -0 -0 -0 -0 -0
-0 -0 -33 -44 -73 -99 -143 -149 -128 -115 -141 -156 -149 -117 -72 -38 -32 -46 -53 -54 -54 -49 -58 -79 -60 -46 -64 -278 -201 -222 -224 -0 -14 -21 -15 -6 -0 -0 -0 -0 -0 -0 -0
-0 -0 -8 -33 -80 -130 -175 -193 -200 -189 -170 -168 -149 -108 -53 -39 -21 -23 -17 -24 -53 -64 -31 -15 -15 -15 -189 -0 -59 -0 -0 -0 -57 -18 -10 -0 -0 -0 -0 -0 -0 -0 -0
-0 -50 -65 -42 -74 -150 -207 -222 -230 -223 -187 -161 -103 -33 -11 -9 -5 -10 -21 -29 -54 -60 -59 -85 -21 -9 -184 -0 -315 -0 -0 -40 -28 -5 -4 -0 -0 -0 -0 -0 -0 -0 -0
-0 -95 -93 -34 -69 -131 -192 -199 -169 -150 -107 -58 -9 -13 -8 -22 -66 -58 -40 -37 -29 -34 -28 -16 -64 -24 -79 -24 -241 -0 -20 -33 -0 -0 -0 -0 -0 -0 -0 -0 -0 -0 -0
-35 -58 -41 -46 -96 -136 -165 -130 -86 -59 -10 -34 -48 -67 -62 -105 -160 -139 -69 -119 -195 -159 -152 -147 -200 -127 -116 -246 -0 -0 -0 -0 -0 -0 -0 -0 -0 -0 -0 -0 -0 -0 -0
-69 -61 -75 -106 -127 -134 -98 -62 -49 -32 -59 -72 -75 -80 -105 -171 -87 -164 -224 -159 -134 -177 -131 -71 -65 -48 -229 -0 -0 -0 -0 -0 -0 -0 -0 -0 -0 -0 -0 -0 -0 -0 -0
-90 -105 -128 -102 -78 -50 -44 -48 -52 -61 -61 -86 -38 -40 -52 -31 -52 -38 -75 -59 -33 -55 -60 -47 -21 -71 -272 -0 -0 -0 -0 -0 -0 -0 -0 -0 -0 -0 -0 -0 -0 -0 -0
-120 -127 -108 -103 -134 -124 -150 -130 -77 -37 -9 -13 -30 -38 -83 -93 -16 -13 -41 -24 -36 -48 -39 -15 -4 -11 -63 -0 -0 -0 -0 -0 -0 -0 -0 -0 -0 -0 -0 -0 -0 -0 -0
-131 -146 -180 -169 -146 -128 -120 -104 -60 -36 -71 -35 -48 -65 -79 -61 -123 -293 -241 -62 -289 -144 -34 -29 -8 -11 -18 -0 -0 -0 -0 -0 -0 -0 -0 -0 -0 -0 -0 -0 -0 -0 -0
-180 -207 -198 -147 -104 -69 -27 -13 -12 -15 -43 -59 -62 -65 -57 -123 -184 -259 -315 -0 -0 -0 -52 -120 -38 -0 -21 -0 -0 -0 -0 -0 -0 -0 -0 -0 -0 -0 -0 -0 -0 -0 -0
Wind_Speed
21 21 23 22 23 22 22 23 24 22 19 19 18 20 20 16 16 16 14 13 12 12 11 9 9 10 10 15 17 18 25 25 26 28 29 25 23 19 30 31 26 25 23
20 21 22 22 23 22 23 23 24 23 22 22 22 18 18 18 16 15 14 12 11 10 8 7 6 9 13 14 16 18 21 25 30 26 28 27 24 29 33 28 25 24 28
19 19 21 23 23 23 22 22 23 23 22 23 21 23 21 20 18 16 13 12 11 10 7 5 5 9 12 16 18 20 21 25 26 23 22 26 26 30 27 30 31 32 29
18 18 20 21 22 21 21 21 21 22 22 24 22 20 21 20 18 17 13 11 9 7 9 13 12 7 4 4 3 19 20 22 25 25 26 26 24 27 29 28 30 32 36
20 20 20 21 21 21 21 21 21 22 22 23 25 21 21 20 19 15 15 11 8 8 9 6 5 7 4 6 10 13 17 24 27 27 27 28 28 30 33 35 37 33 31
19 19 20 20 21 22 22 22 22 22 23 22 24 24 19 21 17 16 13 7 6 5 5 3 4 4 4 6 11 14 16 20 25 25 25 29 29 29 31 32 35 36 35
17 18 20 21 22 23 23 22 22 22 22 22 21 23 22 17 19 15 10 10 5 4 4 4 5 3 4 7 10 12 16 20 22 24 25 27 28 29 29 31 33 37 36
16 18 22 23 23 23 24 24 23 22 22 21 21 20 21 19 13 16 14 8 6 2 4 3 4 6 7 7 10 13 16 17 20 20 24 25 24 28 31 33 37 39 39
17 19 21 23 23 24 26 26 23 22 22 22 21 20 17 18 16 13 10 13 6 2 2 2 2 7 9 11 11 14 16 17 18 20 21 21 25 28 31 30 34 37 41
14 17 20 22 22 24 25 26 24 21 21 20 19 18 17 15 14 11 12 8 7 6 1 2 3 6 8 9 11 12 14 14 19 21 23 24 24 28 28 32 32 31 35
12 15 20 21 22 21 22 23 24 23 18 18 17 16 15 15 12 13 9 9 5 5 4 4 4 9 5 9 11 10 15 15 18 19 21 21 24 26 30 30 31 36 36
9 13 16 20 22 20 20 22 22 21 20 16 16 15 13 13 13 12 11 8 8 6 6 6 8 7 6 10 10 13 15 15 16 18 20 22 25 28 28 31 35 32 34
14 17 18 18 17 19 18 18 19 20 17 16 15 14 13 13 12 11 9 8 8 7 6 7 8 8 8 12 12 14 15 18 18 19 20 23 26 27 29 33 32 32 32
16 17 24 27 24 14 16 16 16 17 16 14 14 14 13 12 11 9 8 7 6 6 6 6 8 10 11 12 14 16 15 18 18 18 21 23 25 28 32 32 31 32 35
11 13 14 17 18 8 11 12 13 14 13 13 12 12 11 9 9 8 7 5 4 4 4 6 9 8 9 12 12 11 13 16 16 20 21 22 28 30 29 29 32 33 34
16 13 11 14 14 12 11 11 11 12 11 12 11 9 7 7 7 6 4 3 3 3 5 6 6 9 12 14 10 13 16 17 19 20 22 25 27 30 28 31 33 33 30
17 18 12 9 10 11 12 13 12 9 10 10 9 8 6 6 5 4 3 3 3 5 6 7 8 11 14 13 11 12 15 16 17 22 23 23 26 28 29 30 32 30 28
17 22 18 9 8 9 9 11 11 11 10 9 8 7 6 5 3 4 4 4 6 7 10 12 13 12 12 13 13 14 14 15 18 20 20 24 25 26 30 30 31 30 27
23 22 22 15 10 8 8 7 8 8 8 8 8 6 5 5 5 5 5 7 9 11 13 13 14 15 14 15 16 16 15 16 18 18 22 25 24 28 30 31 29 29 29
29 24 22 19 11 10 9 9 9 9 9 8 5 4 4 3 4 6 7 8 11 12 15 14 12 14 17 19 19 20 16 18 22 23 24 27 27 29 28 27 28 29 30
19 17 15 9 10 10 9 9 8 8 7 5 5 4 2 3 4 6 7 7 9 11 9 9 11 12 11 10 11 13 15 19 23 24 24 25 29 27 26 25 26 28 30
16 14 12 11 10 9 7 7 7 5 4 4 2 2 3 4 4 4 4 10 11 11 11 12 12 13 14 11 10 13 15 19 22 22 23 26 26 23 25 23 24 28 30
11 10 10 9 10 8 6 5 4 2 2 2 1 0 3 7 7 8 10 9 10 12 13 15 16 17 15 13 12 12 14 16 19 20 22 20 21 20 24 26 27 32 32
6 5 5 8 9 6 4 3 4 3 1 2 2 4 5 6 6 8 9 10 9 14 16 19 17 12 12 11 11 12 14 14 17 19 19 16 20 21 22 26 28 31 32
5 4 4 6 6 5 4 4 3 3 2 4 4 6 6 6 9 13 15 15 18 20 19 18 9 12 6 10 10 13 16 18 20 20 20 22 25 25 27 27 27 29 31
5 4 4 5 5 4 3 3 3 3 3 4 6 8 8 10 13 14 16 19 20 18 15 11 7 10 7 8 13 16 17 18 18 19 22 24 25 26 27 28 27 28 29
Wind_Direction
150 150 156 150 154 151 151 158 164 159 150 155 154 171 178 161 165 173 159 113 112 120 98 97 85 76 70 39 28 25 10 13 9 6 6 11 12 18 353 347 356 357 357
153 154 153 155 157 156 158 158 165 164 163 167 174 165 166 171 162 162 156 141 135 135 130 96 61 42 20 22 15 8 8 4 354 2 3 6 14 355 351 358 357 358 346
153 152 155 161 160 160 160 161 165 167 166 172 169 183 183 184 181 161 130 130 138 138 123 89 83 17 9 1 358 358 0 360 -0 4 5 359 355 351 354 346 347 344 347
152 153 155 159 163 161 160 161 163 166 167 172 173 168 172 173 170 170 154 157 149 138 159 181 184 170 146 127 92 356 3 4 358 355 355 354 353 349 346 347 345 340 338
157 158 159 160 163 163 161 163 164 167 168 169 176 167 170 170 175 160 168 163 125 134 149 149 156 179 96 34 24 10 3 355 352 351 349 349 346 344 342 340 337 343 345
159 161 161 159 163 166 165 164 165 169 171 170 175 180 169 177 168 169 165 110 129 126 152 142 161 46 41 28 11 3 1 357 353 351 350 345 347 348 345 343 338 337 340
160 161 162 163 165 168 168 167 168 171 172 175 175 181 182 173 181 174 166 169 144 128 145 133 41 43 18 8 4 1 358 355 353 350 350 348 347 347 348 345 342 338 337
169 168 170 171 172 172 173 173 171 172 173 175 178 179 184 184 176 186 187 171 187 162 51 80 24 0 358 359 356 355 355 355 353 354 351 351 352 349 347 346 341 339 338
171 174 174 177 179 179 180 181 178 178 179 181 181 183 184 189 192 190 190 202 189 157 63 54 4 11 358 356 350 345 346 349 352 352 354 353 352 348 346 346 345 341 337
172 179 180 181 183 185 186 186 186 183 185 186 187 189 193 196 199 198 203 205 216 221 356 341 349 358 356 354 356 336 339 344 352 352 354 351 350 348 349 347 346 344 339
172 181 183 183 185 187 189 192 192 192 192 193 194 196 200 202 206 209 212 219 242 243 260 288 322 333 334 345 335 347 343 349 350 351 352 351 349 348 347 347 346 343 340
172 181 184 186 184 187 190 194 195 197 199 199 201 205 207 209 214 219 226 241 247 275 283 308 317 323 318 338 333 340 342 344 349 350 350 350 349 347 348 348 345 346 345
297 290 296 319 205 194 194 195 197 199 202 206 210 213 214 217 223 229 237 244 264 259 283 302 312 322 326 330 339 335 341 346 348 350 350 350 349 348 351 348 348 348 349
299 297 296 295 299 210 205 203 204 201 201 206 212 217 223 227 236 238 243 255 261 263 278 314 328 333 327 332 339 338 344 346 348 350 351 349 349 351 348 350 351 351 348
309 301 308 307 302 263 226 222 215 207 209 209 211 215 222 230 230 237 247 265 268 309 314 323 330 333 332 335 335 344 350 347 348 349 349 351 351 351 355 356 354 352 350
303 309 318 307 299 293 268 254 245 229 223 217 217 220 225 234 244 239 244 270 299 318 327 328 329 337 343 344 337 347 346 348 347 348 349 351 353 355 360 355 354 354 353
289 303 298 300 292 289 282 269 263 257 236 230 228 242 249 255 236 226 260 288 311 329 331 331 334 337 348 3 3 353 349 347 349 348 348 353 354 355 356 357 357 358 359
295 305 318 300 294 287 289 280 265 256 248 238 242 252 257 257 261 291 308 328 337 341 342 344 345 349 352 359 5 357 357 354 351 351 355 353 355 359 357 357 357 359 3
290 297 302 308 289 285 286 280 264 255 245 247 259 258 269 283 302 315 331 344 344 343 339 349 348 348 351 350 353 355 358 357 354 354 359 356 0 358 357 357 359 1 4
288 291 294 300 285 289 289 287 274 268 268 264 262 275 281 288 314 326 336 345 350 354 351 353 4 354 347 344 342 344 358 358 354 358 2 4 1 359 1 4 4 4 5
287 293 299 288 289 292 287 285 279 267 269 272 280 275 277 312 327 338 334 336 352 349 355 345 353 352 3 9 4 11 4 358 354 357 2 3 359 3 9 10 10 10 9
296 294 296 300 303 299 286 285 283 267 256 284 247 265 304 336 335 348 355 331 339 353 353 352 2 4 359 9 21 13 3 358 358 360 2 1 6 12 12 15 16 14 14
294 299 306 309 314 313 294 294 301 295 286 246 232 349 351 350 341 345 349 349 349 354 346 336 334 339 353 3 15 13 9 7 4 6 3 10 14 18 17 16 19 7 11
314 316 324 322 325 329 325 336 334 345 338 319 331 347 354 352 5 354 353 348 340 336 330 325 328 335 347 346 24 22 15 14 10 7 11 17 15 16 16 14 15 8 13
346 338 333 330 336 341 317 317 1 42 32 349 346 350 359 360 348 343 338 334 334 329 324 325 336 347 12 360 22 16 15 11 6 8 11 9 6 7 4 7 15 6 5
19 10 13 3 6 23 38 36 33 23 17 350 340 337 345 335 331 329 332 335 334 354 346 352 6 357 11 19 12 9 9 10 14 12 8 6 5 8 359 2 8 2 344